Flag for Switzerland Weather past 2 weeks in Küsnacht, Zurich, Switzerland

Now
90 °F

Hot.


Feels Like: 91 °F
Forecast: 66 / 91 °F
Wind: 3 mph from Southeast

Location: Zurich Town / Ville.

Current Time: Jul 2, 2015 at 7:16:33 PM

Latest Report: Jul 2, 2015 at 6:00 PM


Visibility: N/A

Pressure: 30.03 "Hg

Humidity: 38%

Dew point: 61 °F

Location of KüsnachtLocation

Historic Weather in Küsnacht — Graph

°F

Küsnacht temperature yesterday

Maximum temperature yesterday: 88 °F (at 4:00 PM)
Minimum temperature yesterday: 63 °F (at 3:00 AM)
Average temperature yesterday: 76 °F

Past Weeks' High & Low Weather Summary

 TemperatureHumidityPressure
High92 °F (Jul 2, 5:00 PM)98% (Jun 18, 8:00 PM)30.23 "Hg (Jun 18, 8:00 PM)
Low47 °F (Jun 24, 5:00 AM)26% (Jun 25, 8:00 PM)29.70 "Hg (Jun 22, 10:00 PM)
Average64 °F66%30.09 "Hg
* Reported Jun 17 6:00 PM — Jul 2 6:00 PM, Küsnacht, Weather by CustomWeather, © 2015

Note: Actual official high and low records may vary slightly from our data, if they occured in-between our weather recording intervals... More about our weather records

Advertising

Küsnacht weather history for previous 24 hours

 ConditionsComfort  
Time TempWeatherWind HumidityBarometerVisibility
6:00 PM
Thu, Jul 2
90 °FHot.3 mph38%30.03 "HgN/A
5:00 PM92 °FHot.3 mph33%30.03 "HgN/A
4:00 PM91 °FHot.3 mph37%30.03 "HgN/A
3:00 PM89 °FHot.2 mph35%30.04 "HgN/A
2:00 PM89 °FSunny.5 mph41%30.05 "HgN/A
1:00 PM87 °FWarm.3 mph45%30.06 "HgN/A
12:00 PM85 °FWarm.3 mph51%30.07 "HgN/A
11:00 AM81 °FWarm.2 mph58%30.09 "HgN/A
10:00 AM77 °FWarm.1 mph60%30.11 "HgN/A
9:00 AM74 °FMild.1 mph64%30.12 "HgN/A
8:00 AM71 °FMild.2 mph71%30.12 "HgN/A
7:00 AM67 °FMild.No wind83%30.14 "HgN/A
6:00 AM68 °FMild.2 mph80%30.13 "HgN/A
5:00 AM68 °FMild.No wind78%30.12 "HgN/A
4:00 AM69 °FMild.3 mph73%30.11 "HgN/A
3:00 AM70 °FMild.1 mph70%30.10 "HgN/A
2:00 AM71 °FMild.1 mph60%30.09 "HgN/A
1:00 AM72 °FMild.2 mph61%30.09 "HgN/A
12:00 AM74 °FMild.1 mph53%30.06 "HgN/A
10:00 PM
Wed, Jul 1
78 °FWarm.6 mph50%30.03 "HgN/A
9:00 PM80 °FWarm.6 mph50%30.01 "HgN/A
8:00 PM84 °FPassing clouds.3 mph43%29.99 "HgN/A
7:00 PM86 °FPleasantly warm.3 mph39%29.98 "HgN/A
Weather by CustomWeather, © 2015

See weather overviewHow to use our weather pages